"Pseudo-MPEC" for C8W0X42

Created 2023 Feb 10 13:22:07 UT using Find_Orb

Click here for an explanation of pseudo-MPECs

 
 Astrometry: 
     C8W0X42*1C2023 02 02.50816814 25 54.329+00 12 55.15   ~22Cq 21.47GVNEOCPG96
     C8W0X42 1C2023 02 02.51375214 25 55.981+00 12 58.07   ~22Cq 22.21GVNEOCPG96
     C8W0X42 1C2023 02 02.51934614 25 57.594+00 13 01.20   ~22Cq 21.49GVNEOCPG96
     C8W0X42 1C2023 02 02.52493614 25 59.268+00 13 04.15   ~22Cq 21.24GVNEOCPG96
     C8W0X42 1C2023 02 02.54723114 26 05.870+00 13 15.50   ~22Db       VNEOCPG96
     C8W0X42 1C2023 02 02.54905914 26 06.380+00 13 16.00   ~22Db 20.85GVNEOCPG96
     C8W0X42 1C2023 02 02.55139814 26 07.020+00 13 17.40   ~22Db       VNEOCPG96
     C8W0X42 6C2023 02 03M$lp/G_cN:(7g$H7sPgfe)i9e*r:)oAa;7pbw3k7(X@*p9FZge=0Z84
     C8W0X42 6C2023 02 03X)oPCxe_;V0XSCIE9+#35MM5Nam%g.\V+ZVJsL')*4'-Ytl7.'5pZ84
     C8W0X42 |C2023 02 03FvM:!:tcvPI0as)3TgqiHXBJmPAstrometry+2e!redacted;X(L807
     C8W0X42 |C2023 02 03qBF[rQ^click\81f%f-P/U.eQ2Y(=kG#=!*5wPpp[.Rs?rR+Y(nh807
     C8W0X42 |C2023 02 03jZ@9?^I8;gmEVjv`14m+S?79yt-ggaAZc:g,Z.yYdD/j^A$QWK=p807
     C8W0X42 |C2023 02 07$7Xk0ESQZpER],2k_hereFU)UEhvIs[Dt+Hecnuc!LCqLu/2bq.V807
     C8W0X42 |C2023 02 07UcUC:Yp:o6yqc?w@$Il*forx!:!gH1BfAe6vn+gmi0B@jxmb\lcx807
     C8W0X42 |C2023 02 07,?f/*.OKNU%+sIrA%explanation;+!\vr4iZq5xIvq5_Ux4'C`D807
     C8W0X42 KC2023 02 10.51313415 05 47.940+01 31 05.50   ~2AD7       VNEOCPI52
     C8W0X42 KC2023 02 10.52165815 05 50.370+01 31 11.20   ~2AD7       VNEOCPI52

Station data:
(807) Cerro Tololo Observatory, La Serena  (S30.169133 W70.805900)  Chile.
   Observer R. Holmes. 0.61-m f/6.5 astrograph + CCD.
(G96) Mt. Lemmon Survey  (N32.442751 W110.788720)  US/Arizona.  Observers T.
   A. Pruyne, B. M. Africano, E. J. Christensen, G. A. Farneth, D. C. Fuls,
   A. R. Gibbs, A. D. Grauer, H. Gröller, J. A. Johnson, R. A. Kowalski, S.
   M. Larson, G. J. Leonard, D. Rankin, R. L. Seaman, F. C. Shelly, K. W.
   Wierzchoś. 1.5-m reflector + 10K CCD.
(I52) Steward Observatory, Mt. Lemmon Station  (N32.442544 W110.788920)
   US/Arizona.  Observers T. A. Pruyne, B. M. Africano, E. J. Christensen, G.
   A. Farneth, D. C. Fuls, A. R. Gibbs, A. D. Grauer, H. Gröller, J. A.
   Johnson, R. A. Kowalski, S. M. Larson, G. J. Leonard, D. Rankin, R. L.
   Seaman, F. C. Shelly, K. W. Wierzchoś. 1.0-m reflector + CCD.
(Z84) Calar Alto-Schmidt  (N37.224046 W2.548210)  Spain.  Observer E. Schwab.
   Measurers E. Schwab, D. Koschny, M. Micheli. 0.8-m f/3 Schmidt + CCD.

Orbital elements:  C8W0X42
   Perihelion 2023 Mar 1.17954 +/- 0.155 TT =  4:18:32 (JD 2460004.67954)
Epoch 2023 Feb 10.0 TT = JDT 2459985.5   Earth MOID: 0.2393      AutoNEOCP
M 355.08842802 +/- 0.25             (J2000 ecliptic)
n   0.25608390 +/- 0.0113           Peri.   49.47111 +/- 0.15
a   2.45592176 +/- 0.0723           Node   136.09812 +/- 0.23
e   0.5282580 +/- 0.0127            Incl.   15.68337 +/- 0.12
P   3.85                   H 20.50  G  0.15   U  9.7
q 1.15856143 +/- 0.00299    Q 3.75328208 +/- 0.142
From 17 observations 2023 Feb. 2-10; mean residual 0".25
Residuals in arcseconds: 
230202 G96  .25+  .07-    230202 G96  .71-  .12-    230207 807  .22+  .37+    
230202 G96  .31+  .03-    230203 Z84  .30+  .11-    230207 807  .26-  .08-    
230202 G96  .26-  .22+    230203 Z84  .08+  .02+    230207 807  .17+  .31-    
230202 G96  .11+  .28+    230203 807  .04-  .05+    230210 I52  .27+  .08-    
230202 G96  .48+  .13+    230203 807  .34-  .02+    230210 I52  .31-  .09+    
230202 G96  .04+  .32-    230203 807  .29-  .01-    

Ephemerides (geocentric):
Date (UTC) HH   RA             Dec           delta  r     elong  mag " sig PA
---- --------  ------------   ------------  ------ ------ -----  --- --------
2023 02 10 13  15 05 56.149   +01 31 32.56  .53174 1.1785  97.3 21.6 .054 132
2023 02 10 14  15 06 08.455   +01 31 59.58  .53168 1.1784  97.2 21.6 .060 129
2023 02 10 15  15 06 20.759   +01 32 26.62  .53162 1.1783  97.2 21.6 .066 126
2023 02 10 16  15 06 33.060   +01 32 53.68  .53155 1.1782  97.2 21.6 .072 124
2023 02 10 17  15 06 45.358   +01 33 20.77  .53149 1.1782  97.2 21.6 .079 122
2023 02 10 18  15 06 57.654   +01 33 47.88  .53143 1.1781  97.2 21.6 .086 120
2023 02 10 19  15 07 09.948   +01 34 15.01  .53137 1.1780  97.2 21.6 .093 119
2023 02 10 20  15 07 22.239   +01 34 42.16  .53131 1.1779  97.2 21.6 .100 117
2023 02 10 21  15 07 34.527   +01 35 09.34  .53125 1.1778  97.2 21.6 .107 116
2023 02 10 22  15 07 46.814   +01 35 36.54  .53119 1.1777  97.2 21.6 .115 115
2023 02 10 23  15 07 59.097   +01 36 03.76  .53113 1.1776  97.2 21.6 .123 114
2023 02 11 00  15 08 11.378   +01 36 31.00  .53107 1.1776  97.2 21.6 .131 113
2023 02 11 01  15 08 23.657   +01 36 58.27  .53101 1.1775  97.2 21.6 .139 113
2023 02 11 02  15 08 35.933   +01 37 25.56  .53095 1.1774  97.2 21.6 .147 112
2023 02 11 03  15 08 48.206   +01 37 52.87  .53090 1.1773  97.1 21.6 .156 111
2023 02 11 04  15 09 00.477   +01 38 20.20  .53084 1.1772  97.1 21.6 .164 111
2023 02 11 05  15 09 12.745   +01 38 47.55  .53078 1.1771  97.1 21.6 .173 110
2023 02 11 06  15 09 25.010   +01 39 14.93  .53072 1.1770  97.1 21.6 .182 109
2023 02 11 07  15 09 37.273   +01 39 42.32  .53067 1.1770  97.1 21.6 .191 109
2023 02 11 08  15 09 49.533   +01 40 09.74  .53061 1.1769  97.1 21.6 .200 108
2023 02 11 09  15 10 01.791   +01 40 37.18  .53055 1.1768  97.1 21.6 .210 108
2023 02 11 10  15 10 14.046   +01 41 04.64  .53050 1.1767  97.1 21.6 .219 108
2023 02 11 11  15 10 26.298   +01 41 32.13  .53044 1.1766  97.1 21.6 .229 107
2023 02 11 12  15 10 38.548   +01 41 59.63  .53038 1.1765  97.1 21.6 .239 107
2023 02 11 13  15 10 50.795   +01 42 27.16  .53033 1.1765  97.1 21.6 .249 106
2023 02 11 14  15 11 03.039   +01 42 54.70  .53027 1.1764  97.1 21.6 .260 106
2023 02 11 15  15 11 15.280   +01 43 22.27  .53022 1.1763  97.1 21.6 .270 106
2023 02 11 16  15 11 27.519   +01 43 49.86  .53016 1.1762  97.0 21.6 .281 106
2023 02 11 17  15 11 39.755   +01 44 17.47  .53011 1.1761  97.0 21.6 .291 105
2023 02 11 18  15 11 51.988   +01 44 45.10  .53005 1.1760  97.0 21.6 .302 105
2023 02 11 19  15 12 04.219   +01 45 12.75  .53000 1.1760  97.0 21.6 .314 105
2023 02 11 20  15 12 16.446   +01 45 40.43  .52995 1.1759  97.0 21.6 .325 104
2023 02 11 21  15 12 28.671   +01 46 08.12  .52989 1.1758  97.0 21.6 .336 104
2023 02 11 22  15 12 40.893   +01 46 35.84  .52984 1.1757  97.0 21.6 .348 104
2023 02 11 23  15 12 53.112   +01 47 03.57  .52979 1.1756  97.0 21.6 .360 104
2023 02 12 00  15 13 05.328   +01 47 31.33  .52974 1.1755  97.0 21.6 .372 104
2023 02 12 01  15 13 17.542   +01 47 59.11  .52968 1.1755  97.0 21.6 .384 103
2023 02 12 02  15 13 29.752   +01 48 26.90  .52963 1.1754  97.0 21.6 .397 103
2023 02 12 03  15 13 41.960   +01 48 54.72  .52958 1.1753  97.0 21.6 .409 103
2023 02 12 04  15 13 54.165   +01 49 22.56  .52953 1.1752  97.0 21.6 .422 103
2023 02 12 05  15 14 06.367   +01 49 50.42  .52948 1.1751  96.9 21.6 .435 103
2023 02 12 06  15 14 18.566   +01 50 18.30  .52943 1.1751  96.9 21.6 .448 102
2023 02 12 07  15 14 30.762   +01 50 46.19  .52938 1.1750  96.9 21.6 .461 102
2023 02 12 08  15 14 42.955   +01 51 14.11  .52933 1.1749  96.9 21.6 .475 102
2023 02 12 09  15 14 55.145   +01 51 42.05  .52928 1.1748  96.9 21.6 .489 102
2023 02 12 10  15 15 07.333   +01 52 10.01  .52923 1.1747  96.9 21.6 .503 102
2023 02 12 11  15 15 19.517   +01 52 37.99  .52918 1.1747  96.9 21.6 .517 102
2023 02 12 12  15 15 31.698   +01 53 05.99  .52913 1.1746  96.9 21.6 .531 101